Louisville, KY

12:09 AM EST on December 11, 2016 (GMT -0500)
Louisville International-Standiford

Weather History for KSDF - July, 2012

Change the Weather History Date:

Sunday, July 15, 2012

  Actual Average Record
Temperature  
Mean Temperature 83 °F 80 °F  
Max Temperature 93 °F 89 °F 106 °F (1936)
Min Temperature 73 °F 70 °F 55 °F (1967)
Degree Days  
Heating Degree Days 0 0  
Month to date heating degree days 0 0  
Since 1 June heating degree days 7 5  
Since 1 July heating degree days 0 0  
Cooling Degree Days 18 14  
Month to date cooling degree days 304 210  
Year to date cooling degree days 1011 708  
Since 1 June cooling degree days 656 534  
Growing Degree Days 33 (Base 50)    
Moisture  
Dew Point 70 °F    
Average Humidity 67    
Maximum Humidity 87    
Minimum Humidity 47    
Precipitation  
Precipitation 0.01 in 0.14 in 1.69 in (1919)
Month to date precipitation 1.33 1.97  
Year to date precipitation 25.44 25.63  
Snow  
Snow 0.00 in 0.00 in - ()
Month to date snowfall 0.0 0.0  
Since 1 June snowfall 0.0 0.0  
Since 1 July snowfall 0.0 0.0  
Snow Depth 0.00 in    
Sea Level Pressure  
Sea Level Pressure 30.09 in    
Wind  
Wind Speed 6 mph (SSW)    
Max Wind Speed 17 mph    
Max Gust Speed 28 mph    
Visibility 10 miles    
Events Rain    
T = Trace of Precipitation, MM = Missing Value Source: NWS Daily Summary

Daily Weather History Graph

Daily Weather History Graph

Search for Another Location

Airport or City:

Trip Planner

Search our weather history database for the weather conditions in past years. The results will help you decide how hot, cold, wet, or windy it might be!

Date:

Astronomy

Jul. 15, 2012 Rise Set
Actual Time 6:32 AM EDT 9:05 PM EDT
Civil Twilight 6:01 AM EDT 9:35 PM EDT
Nautical Twilight 5:23 AM EDT 10:13 PM EDT
Astronomical Twilight 4:41 AM EDT 10:56 PM EDT
Moon 3:28 AM EDT (7/15) 6:21 PM EDT (7/15)
Length of Visible Light 15h 34m
Length of Day
14h 32m
Waning Crescent, 12% of the Moon is Illuminated
Jul 15
Waning Crescent
Jul 19
New
Jul 26
First Quarter
Aug 1
Full
Aug 9
Last Quarter

Hourly Weather History & Observations

Time (EDT) Temp. Heat Index Dew Point Humidity Pressure Visibility Wind Dir Wind Speed Gust Speed Precip Events Conditions
12:56 AM 75.9 °F - 70.0 °F 82% 30.09 in 10.0 mi South 5.8 mph - N/A   Mostly Cloudy
1:56 AM 75.0 °F - 70.0 °F 84% 30.09 in 10.0 mi SE 5.8 mph - N/A   Mostly Cloudy
2:56 AM 73.9 °F - 70.0 °F 87% 30.09 in 10.0 mi SSE 8.1 mph - N/A   Mostly Cloudy
3:56 AM 75.0 °F - 70.0 °F 84% 30.09 in 10.0 mi South 8.1 mph - N/A   Overcast
4:56 AM 73.0 °F - 70.0 °F 90% 30.08 in 10.0 mi SE 3.5 mph - 0.00 in   Mostly Cloudy
5:56 AM 73.0 °F - 70.0 °F 90% 30.09 in 10.0 mi SSE 4.6 mph - N/A   Overcast
6:56 AM 73.0 °F - 70.0 °F 90% 30.10 in 10.0 mi SSE 5.8 mph - N/A   Mostly Cloudy
7:56 AM 75.0 °F - 70.0 °F 84% 30.12 in 10.0 mi Calm Calm - N/A   Overcast
8:56 AM 75.9 °F - 70.0 °F 82% 30.14 in 10.0 mi Calm Calm - N/A   Overcast
9:56 AM 79.0 °F - 70.0 °F 74% 30.15 in 10.0 mi SSW 6.9 mph - N/A   Mostly Cloudy
10:56 AM 79.0 °F - 70.0 °F 74% 30.15 in 10.0 mi SSW 9.2 mph - 0.00 in   Mostly Cloudy
11:56 AM 79.0 °F - 71.1 °F 77% 30.15 in 10.0 mi SW 3.5 mph - 0.01 in Rain Light Rain
12:56 PM 82.0 °F 85.9 °F 70.0 °F 67% 30.14 in 10.0 mi SW 4.6 mph - 0.00 in   Overcast
1:48 PM 84.2 °F 89.6 °F 71.6 °F 66% 30.14 in 10.0 mi Calm Calm - N/A   Overcast
1:56 PM 84.9 °F 90.1 °F 71.1 °F 63% 30.12 in 10.0 mi Variable 3.5 mph - N/A   Overcast
2:56 PM 89.1 °F 94.1 °F 70.0 °F 53% 30.09 in 10.0 mi WSW 10.4 mph - N/A   Mostly Cloudy
3:56 PM 91.0 °F 96.6 °F 70.0 °F 50% 30.06 in 10.0 mi SW 11.5 mph - N/A   Mostly Cloudy
4:56 PM 91.0 °F 95.2 °F 68.0 °F 47% 30.05 in 10.0 mi WSW 12.7 mph - N/A   Mostly Cloudy
5:56 PM 88.0 °F 92.1 °F 69.1 °F 53% 30.03 in 10.0 mi West 11.5 mph - N/A   Scattered Clouds
6:56 PM 90.0 °F 95.4 °F 70.0 °F 52% 30.02 in 10.0 mi SW 9.2 mph - N/A   Mostly Cloudy
7:56 PM 87.1 °F 91.3 °F 69.1 °F 55% 30.04 in 10.0 mi SW 8.1 mph - N/A   Scattered Clouds
8:56 PM 84.9 °F 89.4 °F 70.0 °F 61% 30.05 in 10.0 mi West 5.8 mph - N/A   Scattered Clouds
9:56 PM 84.9 °F 89.4 °F 70.0 °F 61% 30.06 in 10.0 mi SW 3.5 mph - N/A   Mostly Cloudy
10:56 PM 82.9 °F 87.5 °F 71.1 °F 67% 30.06 in 10.0 mi Calm Calm - N/A   Mostly Cloudy
11:56 PM 82.9 °F 87.5 °F 71.1 °F 67% 30.06 in 10.0 mi Calm Calm - N/A   Mostly Cloudy